Wind_Speed
36 35 34 33 32 31 30 29 28 27 26 25 25 24 24 23 22 20 19 18 17 16 16 16 16 15 15 14 14 14 14 14 14 14 14 13 13 12 12 12 12 12 12 12 13 13 13 14 14 15 16 16 17 17 17 17 18 19 19 20 20 21 21 21 21 21 21 21 21
37 35 34 33 32 31 30 29 28 27 26 25 25 24 23 23 22 20 19 18 17 16 16 15 15 15 14 14 14 14 15 15 15 14 14 13 13 12 12 12 12 12 13 13 13 13 14 14 15 16 16 17 17 18 18 18 19 19 20 21 21 21 21 21 22 22 22 22 22
38 36 34 33 33 32 31 30 29 28 27 26 25 24 23 22 21 20 19 18 17 16 15 15 15 15 14 14 14 15 15 15 15 14 14 13 13 12 12 13 13 13 13 13 14 14 14 15 15 16 17 17 18 18 19 19 19 20 21 21 21 22 22 22 22 21 21 21 22
38 37 35 34 34 33 32 31 29 28 27 26 25 24 23 23 22 20 19 18 17 16 16 15 15 15 15 15 15 15 15 15 15 14 13 13 13 13 13 13 13 13 13 14 14 14 15 15 16 17 18 18 19 19 20 20 20 21 21 22 22 22 22 22 22 21 21 22 22
39 38 36 35 34 33 31 30 29 28 27 26 25 25 24 23 22 21 20 19 18 17 16 15 15 15 15 15 16 16 16 15 14 14 13 13 13 13 13 13 14 14 14 14 14 15 15 16 17 17 18 19 19 20 20 21 21 21 22 22 22 22 22 22 22 22 22 22 23
40 38 37 35 34 32 31 30 29 28 27 26 25 25 24 23 23 22 21 20 18 17 16 15 15 16 16 16 16 16 15 15 14 13 13 13 13 13 14 14 14 14 14 15 15 15 16 16 17 18 19 19 20 20 21 21 21 22 22 22 22 23 23 22 22 23 23 23 24
41 39 38 36 34 33 31 30 29 28 27 26 25 25 24 24 23 23 22 20 18 17 16 16 16 17 17 17 17 16 15 14 14 13 13 14 14 14 14 14 14 15 15 15 15 16 16 17 18 19 19 20 21 21 21 21 22 22 22 23 23 23 23 23 24 24 24 24 24
41 40 38 36 34 33 32 30 29 28 27 26 26 25 25 24 24 23 22 20 18 17 17 17 17 17 17 17 17 16 15 14 14 13 14 14 14 14 14 15 15 15 15 15 16 16 17 17 18 19 20 20 21 21 22 22 22 22 23 23 24 23 23 23 23 23 23 24 25
41 40 38 36 35 33 32 31 30 29 28 27 26 25 25 24 24 23 22 20 19 18 17 18 18 18 18 17 16 15 14 14 14 14 14 14 14 15 15 15 15 15 16 16 16 16 17 18 19 20 20 21 21 22 22 23 23 23 24 24 24 24 24 24 24 24 24 24 25
41 40 39 37 35 33 32 31 30 29 28 27 26 25 25 24 24 23 22 20 19 18 18 18 18 18 18 17 16 15 14 14 14 14 14 14 15 15 15 15 15 16 16 16 16 17 17 18 19 20 21 21 22 22 23 23 23 24 24 24 24 24 24 24 24 24 25 25 25
42 41 39 38 36 34 32 31 30 29 28 27 26 26 25 25 25 23 22 20 19 19 19 19 19 18 18 16 15 15 14 14 14 14 14 15 15 15 15 15 16 16 16 16 16 17 18 19 20 20 21 21 22 23 23 23 23 24 24 24 24 24 25 25 25 25 25 26 26
42 41 40 38 36 34 33 32 31 30 29 28 27 26 26 26 25 23 22 20 20 19 19 19 19 18 17 16 15 15 14 14 14 14 15 15 15 15 15 16 16 16 16 16 17 17 18 19 20 21 22 22 22 22 23 23 23 24 24 24 24 24 25 25 25 25 25 25 26
42 41 40 38 37 35 34 33 32 30 30 29 28 27 27 26 25 24 22 21 20 20 20 19 19 18 17 16 15 15 14 14 14 15 15 15 15 16 16 16 16 16 16 17 17 18 18 20 20 21 22 22 22 22 22 22 23 23 24 24 24 24 25 25 25 26 26 26 27
41 41 40 39 37 36 34 33 32 31 30 30 29 28 28 27 26 24 23 22 21 20 20 19 19 18 17 16 15 15 14 14 14 15 15 16 16 16 16 16 16 16 17 17 17 18 19 20 21 21 22 22 22 22 21 22 22 23 23 24 24 24 25 25 25 26 26 26 27
39 40 40 39 38 36 35 34 33 32 31 31 30 29 28 27 26 25 23 22 21 21 20 20 19 18 17 16 15 15 14 14 15 15 16 16 16 16 16 16 16 17 17 17 18 18 19 20 20 21 21 21 21 21 21 21 22 23 23 23 24 24 25 25 25 25 26 26 27
38 39 40 39 39 37 36 35 34 33 32 31 31 30 29 28 26 25 24 23 22 21 20 20 19 18 17 16 15 15 15 15 15 16 16 17 17 16 16 16 16 17 17 18 18 19 19 19 20 20 20 20 21 21 21 22 22 22 23 23 23 24 24 24 25 25 26 26 27
37 38 39 39 39 38 37 36 35 34 33 32 31 30 29 28 27 25 24 23 22 21 21 20 19 18 17 16 15 15 15 16 16 16 17 16 16 16 16 16 17 17 17 18 19 19 19 19 18 19 19 20 21 21 22 22 22 22 22 23 23 23 24 24 24 25 26 26 27
37 37 38 39 39 38 37 36 35 35 34 33 32 31 29 28 27 25 24 23 22 22 21 20 19 18 17 16 15 15 15 16 16 16 16 16 16 16 16 17 17 17 18 18 19 19 19 18 18 18 19 20 21 21 22 22 22 22 22 22 23 23 23 24 25 25 26 27 27
36 37 38 39 39 39 38 37 36 35 34 33 32 31 29 28 27 26 24 23 22 21 20 19 18 17 17 16 15 15 16 16 16 16 16 16 16 16 17 17 17 17 18 18 18 18 18 18 18 19 20 20 21 21 21 21 22 22 22 22 23 23 24 24 25 26 26 27 27
36 37 38 39 39 39 39 38 36 35 34 32 31 30 29 28 27 25 24 23 22 21 20 19 18 17 16 16 15 15 15 15 15 16 16 16 16 16 17 17 17 17 18 18 18 17 18 18 19 19 20 21 21 21 21 21 21 22 22 23 23 24 24 25 25 26 26 26 26
36 38 39 40 40 40 39 38 36 35 33 32 31 30 29 28 27 25 24 23 21 20 19 18 18 17 16 16 15 15 15 15 15 16 16 16 16 16 17 17 17 17 17 17 17 17 18 18 19 20 20 21 21 21 21 21 22 22 23 23 24 24 25 25 25 26 26 25 25
36 38 39 40 40 40 39 38 36 35 33 32 31 30 29 28 26 25 23 22 20 20 19 18 17 16 16 15 15 15 15 15 15 16 16 16 17 17 17 17 17 17 17 16 16 17 18 19 19 20 20 20 21 21 21 22 22 23 23 24 24 25 25 25 25 25 25 24 24
36 37 38 39 39 39 39 38 36 35 34 32 31 30 28 27 26 24 23 21 20 19 18 18 17 16 15 15 15 15 15 15 16 16 16 16 17 17 17 17 16 16 16 16 16 17 18 19 20 20 20 20 21 21 21 22 23 23 23 24 24 24 25 25 24 24 23 23 23
36 36 37 38 38 38 38 37 36 35 34 32 31 30 28 27 25 24 22 21 20 19 18 17 16 16 15 15 15 15 15 16 16 16 16 17 17 17 16 16 15 15 15 16 16 17 18 19 19 19 20 20 21 21 22 22 22 23 23 24 24 24 24 24 23 23 22 22 23
35 35 36 37 37 37 37 37 36 35 33 32 31 29 28 27 25 23 22 21 20 19 18 17 16 15 15 15 15 15 16 16 16 16 17 17 16 16 15 15 15 15 15 16 17 18 18 18 18 19 20 21 21 22 22 22 22 22 23 23 23 23 23 23 22 21 21 22 22
34 35 35 36 36 37 36 36 35 34 33 31 30 29 28 26 25 23 22 21 20 18 17 16 16 15 15 15 15 16 16 16 16 17 17 16 16 15 14 14 14 15 15 16 17 18 17 17 18 19 20 21 21 22 22 23 23 23 23 23 23 22 22 21 21 21 21 22 22
34 34 34 35 36 36 36 36 35 34 33 31 30 29 27 26 24 23 22 20 19 18 17 16 15 15 15 15 16 16 16 16 17 17 16 15 14 14 13 14 14 15 16 17 18 17 17 17 18 19 20 20 21 22 22 23 23 22 22 22 22 21 20 20 20 20 21 21 22
34 34 34 35 35 35 35 35 34 33 32 31 30 28 27 26 24 23 21 20 19 18 17 16 15 15 15 16 16 16 16 17 16 16 15 14 13 13 13 14 15 15 16 17 17 17 17 18 19 19 19 20 21 21 22 22 22 22 22 21 20 19 19 18 19 19 20 21 21
34 34 34 34 35 35 35 35 34 33 32 31 29 28 26 25 24 22 21 20 19 18 17 16 15 15 16 16 16 16 16 16 16 14 13 13 13 13 14 14 15 16 16 17 17 17 17 18 19 19 19 20 20 21 21 22 22 21 21 20 19 18 17 17 17 18 19 20 21
34 34 35 35 35 35 35 35 34 33 32 30 29 27 26 25 23 22 21 20 19 17 16 15 15 15 16 16 16 16 16 15 14 13 13 12 13 13 14 14 15 16 16 17 17 17 18 18 19 19 19 19 20 21 21 21 21 20 19 18 17 16 16 16 17 18 19 20 21
35 35 35 35 35 35 35 35 34 33 31 30 29 27 26 24 23 22 21 19 18 17 16 15 15 16 16 16 16 16 15 14 13 12 12 12 13 13 14 15 15 16 16 17 17 18 18 18 19 19 19 19 20 20 21 20 20 19 18 17 16 16 16 17 18 19 20 21 21
35 35 35 35 35 35 35 34 33 32 31 30 29 27 26 24 23 21 20 18 17 16 16 15 16 16 16 16 16 15 15 13 13 12 12 12 13 14 14 15 15 16 16 17 18 18 18 18 18 19 19 19 19 20 20 20 19 18 17 17 17 17 18 19 20 20 21 21 21
35 35 35 35 35 35 34 34 33 32 31 30 28 27 25 23 22 21 19 18 17 16 16 16 16 16 16 16 16 15 14 13 12 12 12 12 13 14 15 15 16 16 17 17 18 17 17 18 18 19 19 19 19 19 19 19 19 18 17 17 17 18 19 19 20 20 20 20 21
35 35 35 35 35 34 34 33 33 32 31 30 28 26 24 23 22 20 19 18 17 16 16 16 16 16 16 15 14 13 12 12 11 11 12 12 13 14 15 16 16 16 17 17 17 17 17 18 18 18 19 19 19 19 19 19 18 18 17 17 18 18 19 19 19 19 19 20 20
36 35 35 34 34 34 34 34 33 32 31 29 27 25 24 23 21 20 18 17 16 16 16 16 16 16 15 14 13 12 12 11 11 12 12 13 13 14 15 16 16 16 17 17 17 17 17 17 18 18 18 18 19 19 19 19 18 17 17 18 18 18 19 19 18 19 19 20 21
37 36 35 34 34 34 34 34 34 32 30 28 27 25 24 22 21 19 17 16 16 16 16 16 16 15 15 14 13 12 11 11 11 12 12 13 14 15 16 16 17 17 17 17 17 17 16 16 17 17 18 18 19 19 19 18 18 17 17 18 18 18 18 18 18 19 20 20 21
37 37 36 35 34 34 35 35 34 32 30 28 26 25 23 22 20 18 17 16 16 16 16 16 16 15 14 13 12 11 11 11 12 12 13 13 14 15 16 17 17 17 16 16 16 16 16 15 16 17 18 18 19 19 18 18 18 17 17 17 17 18 18 18 19 20 21 21 21
38 37 37 36 35 35 35 35 33 32 30 28 26 24 22 21 19 18 17 16 17 17 17 16 15 15 13 12 11 11 11 11 12 12 13 14 14 15 16 17 17 17 16 16 15 15 15 14 15 17 18 18 19 18 18 18 17 17 17 17 17 18 18 19 20 21 22 22 21
38 37 37 36 36 36 36 35 33 31 29 27 25 23 22 20 19 18 17 16 16 16 16 15 15 14 12 11 10 10 11 11 12 13 13 14 14 15 16 16 17 16 16 15 15 14 14 14 15 17 18 18 18 18 17 17 17 17 17 17 17 18 19 20 21 22 22 22 21
38 37 37 37 37 37 36 34 32 30 28 26 24 23 21 19 18 17 16 16 16 16 15 15 14 12 11 10 10 10 11 12 12 13 13 14 14 15 15 16 16 16 15 14 14 14 14 15 16 17 17 17 17 16 16 16 16 16 16 17 18 19 20 21 22 22 22 22 22
37 37 37 37 37 37 35 33 31 28 26 25 23 21 20 18 17 16 16 16 16 15 14 13 12 11 10 10 10 11 11 12 13 13 13 14 14 14 15 15 15 15 15 14 14 14 14 15 16 16 16 16 15 15 15 15 15 15 16 17 18 19 20 21 21 22 22 22 22
Wind_Direction
206 206 206 206 205 204 205 205 206 206 206 205 206 207 209 212 214 216 219 222 225 228 229 228 226 225 225 226 228 231 233 235 237 240 244 249 254 259 263 265 267 270 274 279 283 287 290 293 296 297 299 300 300 300 301 302 301 300 299 298 298 298 297 296 296 297 297 297 297
206 206 206 206 205 205 205 205 206 207 207 207 208 209 210 212 215 217 219 222 226 228 229 227 225 224 224 226 228 231 233 235 237 240 245 251 256 259 262 264 267 271 275 280 284 287 290 293 295 297 298 299 299 300 301 302 302 300 298 297 298 297 297 296 296 297 297 297 296
205 205 206 205 205 205 205 205 206 207 207 208 209 210 212 214 216 218 220 223 227 229 228 226 224 224 225 227 229 231 233 235 238 242 247 252 256 258 261 264 268 272 276 281 284 287 290 293 295 296 298 299 299 300 301 302 302 299 297 297 297 297 296 295 295 296 296 295 294
205 205 205 205 205 205 205 206 206 206 207 208 209 211 212 215 217 219 222 224 227 227 226 225 224 224 226 228 230 231 233 236 240 244 249 253 255 257 261 264 269 273 277 281 284 287 290 293 294 295 297 298 299 300 301 302 302 299 297 297 297 296 295 295 295 295 293 292 291
204 205 205 206 206 207 207 207 207 207 207 207 208 210 212 215 217 220 222 224 226 226 226 225 225 226 227 229 230 231 234 237 242 246 250 252 255 258 261 266 270 275 278 281 284 287 290 293 293 295 296 298 298 300 301 302 301 299 297 297 296 296 295 294 294 293 292 290 290
204 205 206 206 207 207 208 208 208 208 207 207 208 210 212 214 217 219 222 224 226 226 226 225 226 227 228 229 230 232 235 239 244 248 250 253 255 259 263 268 272 275 278 280 284 287 290 292 293 295 297 298 299 300 302 302 300 298 296 295 295 295 294 293 292 292 291 290 289
204 205 206 206 207 207 208 209 209 209 208 208 209 211 213 214 216 219 222 224 226 226 225 225 226 227 228 229 230 233 237 242 246 249 251 253 257 261 265 269 272 275 277 281 284 288 290 292 293 295 297 298 298 299 301 301 298 296 294 293 295 295 294 293 293 292 291 289 289
204 205 206 207 207 207 208 209 209 209 209 209 211 212 214 215 217 219 222 225 226 226 226 226 226 227 228 230 232 236 241 245 247 249 251 254 258 262 266 269 272 274 277 281 285 288 291 293 294 295 297 297 298 299 300 300 298 295 293 293 294 295 294 294 293 292 291 289 289
204 206 207 207 208 208 208 209 209 209 210 210 212 213 215 216 218 220 223 225 227 227 227 227 227 228 229 231 235 239 244 247 249 250 252 256 259 263 266 269 272 275 278 282 286 289 292 293 294 295 297 298 298 299 300 300 298 295 294 294 295 295 296 296 295 293 291 289 288
204 205 206 207 208 208 209 209 210 210 211 212 213 215 216 218 219 221 224 226 228 229 228 228 228 229 230 233 238 242 246 249 250 252 254 257 260 263 266 269 273 276 280 284 288 290 292 294 295 296 298 299 299 300 300 300 298 297 296 296 296 296 297 297 296 295 292 290 288
204 205 206 207 208 208 209 209 210 211 212 213 215 216 217 219 220 222 225 227 228 229 229 229 229 230 232 235 240 245 247 249 251 253 256 258 261 264 267 270 274 278 282 286 289 292 293 294 295 297 298 299 300 300 300 300 299 298 297 297 297 296 296 297 297 296 294 292 290
204 206 207 208 208 208 208 209 210 211 213 214 216 217 218 219 221 223 225 227 228 229 230 230 230 231 234 238 242 246 248 249 252 254 257 259 262 265 268 271 275 279 283 287 291 293 294 295 296 297 298 299 300 300 300 300 299 298 297 297 297 296 295 296 297 297 296 294 292
204 206 207 208 208 208 208 209 210 211 213 215 216 217 219 220 221 223 225 227 229 230 230 230 231 233 236 240 243 246 248 250 252 255 258 260 263 266 269 273 276 280 284 288 292 294 295 296 296 297 298 299 300 301 301 301 300 298 297 297 297 296 295 296 297 298 296 294 291
204 205 206 207 208 208 208 209 210 211 213 215 216 217 218 220 221 223 225 228 230 231 231 231 232 234 237 241 244 246 248 251 253 256 258 261 264 267 270 274 278 282 286 290 293 295 295 296 297 298 298 299 300 302 303 302 301 299 298 297 296 296 296 298 299 298 296 294 292
203 205 206 207 207 207 208 208 210 211 213 215 216 217 218 219 221 223 226 229 231 231 231 231 232 234 238 241 244 246 249 251 254 256 259 262 265 268 271 276 280 284 288 291 293 295 296 297 297 298 299 300 301 303 304 304 302 301 300 299 298 298 299 299 300 299 297 294 292
202 204 206 206 207 207 208 208 210 211 213 215 216 217 218 220 221 224 227 229 231 231 231 231 233 235 238 240 243 246 249 251 254 257 260 263 266 269 273 278 282 286 289 292 293 295 296 297 298 299 300 301 302 303 304 304 304 303 302 302 302 301 301 301 300 299 297 295 292
201 203 205 206 206 207 208 208 210 211 213 215 216 217 218 220 222 225 227 229 230 230 230 231 233 235 237 239 242 246 249 252 254 257 260 264 268 272 276 280 284 287 290 292 293 295 296 297 299 301 302 302 303 304 305 305 305 305 304 304 304 303 303 302 301 299 297 295 292
200 202 204 205 206 207 208 209 210 212 213 215 216 217 219 220 223 225 228 229 229 229 230 231 233 235 237 239 242 245 249 252 255 258 261 265 270 274 278 281 285 288 290 292 293 294 296 298 300 302 303 304 305 305 306 307 306 306 306 306 305 305 304 303 302 300 298 295 293
200 202 203 205 206 207 208 209 210 212 214 215 217 218 220 221 224 226 227 228 228 229 230 231 233 234 237 239 242 245 249 252 255 259 263 268 272 275 279 282 285 288 290 291 292 294 296 299 302 304 305 306 306 307 307 307 307 307 307 306 305 304 304 303 302 300 298 296 295
199 201 203 205 207 208 209 210 211 212 214 216 218 219 220 222 224 226 227 227 227 228 229 231 232 234 236 239 242 245 248 252 256 261 265 269 273 276 279 282 285 287 288 290 292 294 297 301 304 305 306 307 307 308 308 308 308 307 306 305 304 303 302 302 301 299 297 296 295
200 202 204 206 207 208 209 210 211 213 215 217 218 220 221 223 224 225 226 226 226 227 228 230 231 233 236 239 242 246 250 254 258 263 266 270 273 276 279 282 285 286 287 289 292 296 300 303 305 306 307 307 307 307 307 307 306 305 304 303 302 302 301 300 299 297 296 296 295
200 203 205 207 208 209 210 211 212 213 215 217 219 220 222 223 224 225 225 225 225 226 227 229 231 233 236 240 243 248 252 256 260 263 267 270 273 276 279 282 283 285 287 290 294 299 302 305 306 307 307 306 306 305 305 304 303 302 301 301 300 300 299 298 297 297 296 296 295
201 203 205 207 208 209 210 211 212 214 215 217 219 220 222 223 223 223 223 222 223 225 226 228 231 234 238 242 246 250 254 257 260 263 267 270 273 276 278 280 282 284 288 293 298 302 305 306 306 306 305 304 303 303 303 302 301 300 299 299 298 298 297 297 296 296 296 296 295
200 202 204 206 208 209 210 211 212 214 215 217 219 220 221 222 221 220 220 220 222 224 226 228 231 235 239 243 247 251 255 258 261 264 267 270 273 276 277 279 282 286 291 297 302 305 306 306 305 304 303 302 301 301 301 300 300 299 298 297 296 295 295 295 296 296 296 296 295
199 201 203 205 207 208 210 211 212 213 215 216 217 219 219 220 219 218 218 219 221 223 225 228 232 236 240 244 248 251 255 258 262 265 268 270 272 275 277 280 284 289 295 301 305 306 306 302 300 299 300 301 301 301 301 300 300 299 298 296 295 294 294 294 295 296 297 297 296
199 200 202 204 206 208 209 211 212 213 214 215 216 217 217 217 215 215 216 218 220 222 225 228 232 236 240 244 248 252 255 259 262 266 269 271 272 274 278 282 288 294 299 303 305 306 303 298 296 297 299 301 301 302 302 301 301 300 299 297 296 294 294 294 295 296 297 297 297
198 199 201 204 206 207 209 211 212 212 213 214 215 215 214 213 213 214 215 218 220 222 225 228 232 236 240 245 249 252 256 259 263 266 268 270 272 275 280 286 292 297 301 303 305 304 300 297 298 299 300 301 302 302 302 302 302 301 300 298 296 295 295 295 296 298 298 299 299
197 198 201 203 205 207 209 210 210 211 212 213 213 212 211 210 211 212 215 217 219 222 224 228 232 236 241 246 249 253 257 261 264 265 267 269 273 278 285 291 295 299 302 303 304 301 298 298 299 301 302 302 303 303 303 303 302 301 300 298 296 296 296 297 299 300 301 302 304
196 198 200 202 204 206 207 208 209 210 211 211 211 209 208 208 210 212 214 216 218 221 224 228 233 237 242 246 250 255 258 261 263 264 266 269 275 282 289 294 298 300 302 304 303 300 298 299 301 302 303 303 303 304 303 303 302 302 300 299 298 298 300 301 303 305 307 308 309
196 197 199 201 203 205 206 207 208 209 209 209 207 206 205 207 209 211 213 216 218 221 225 229 234 238 243 247 252 255 258 260 260 261 266 272 279 286 292 296 299 300 302 303 303 301 299 300 301 303 303 304 304 304 304 304 304 303 302 302 302 304 307 310 313 313 313 312 312
195 197 198 200 202 203 205 207 207 208 207 206 204 203 204 206 208 211 213 216 219 222 226 231 235 240 244 249 252 255 256 257 258 262 269 277 284 290 294 297 299 300 301 303 303 301 300 300 302 303 304 305 305 305 305 306 306 306 307 308 309 312 315 317 317 316 315 313 312
195 196 198 199 200 203 205 206 206 206 204 202 201 201 203 206 208 211 213 216 219 223 227 231 236 241 246 249 252 253 254 255 259 266 274 282 288 293 295 297 298 299 301 303 303 301 300 300 302 304 305 306 306 306 307 307 308 309 309 310 312 314 315 316 316 315 313 312 311
194 195 197 198 200 202 203 204 204 202 201 199 199 201 203 206 208 210 213 216 219 223 228 232 237 242 247 250 251 251 252 256 264 272 280 286 291 294 295 296 297 299 301 303 303 301 299 301 303 304 306 306 307 307 308 308 308 308 308 308 310 311 312 313 313 312 311 310 310
193 194 195 197 198 200 201 202 200 199 197 197 199 201 203 205 207 210 212 216 220 225 230 235 240 244 248 249 249 250 253 260 269 277 285 289 292 294 295 295 297 300 302 303 302 300 299 300 303 304 305 307 307 307 307 307 306 306 307 308 310 311 311 311 311 310 310 310 310
192 193 194 195 197 198 198 198 197 196 195 196 198 200 203 205 207 210 213 216 221 226 231 237 241 245 246 246 246 249 256 265 274 282 287 291 292 293 294 295 297 300 302 302 301 300 299 300 302 304 306 307 307 306 306 305 304 305 307 309 311 311 311 311 311 310 310 311 311
192 192 192 193 194 195 195 195 194 193 193 195 197 199 202 205 208 211 214 218 222 228 233 238 242 243 243 242 244 251 261 271 279 285 289 291 292 293 294 295 298 300 302 302 301 300 299 299 301 304 306 306 306 305 304 304 304 306 308 310 312 312 313 312 312 312 311 312 313
192 192 191 191 192 192 193 192 191 191 193 195 197 199 202 205 207 211 214 218 224 229 234 239 240 240 239 241 247 256 267 275 283 287 289 290 292 293 294 296 298 300 301 302 302 301 300 298 301 304 306 306 306 305 304 304 305 307 310 312 313 313 314 314 313 313 312 312 313
192 192 191 190 190 190 190 190 190 191 192 195 197 200 202 205 208 211 215 220 225 231 236 238 238 237 238 243 253 262 271 278 283 286 289 291 292 293 294 295 297 299 301 302 302 302 300 298 301 304 306 306 305 304 304 305 306 308 310 312 313 314 315 315 314 312 312 312 312
191 191 190 189 188 188 188 188 189 191 193 194 197 199 202 205 208 212 217 222 227 232 236 236 235 236 240 248 257 266 273 279 283 286 288 290 293 294 295 295 297 299 301 302 302 302 301 299 302 305 306 306 305 304 304 305 306 308 310 313 314 315 315 314 313 312 311 311 311
191 190 190 189 188 187 187 188 189 191 193 195 197 199 202 205 209 213 218 224 229 232 234 233 233 237 243 252 261 269 275 280 283 285 288 291 293 294 294 295 296 298 299 300 300 301 302 302 304 306 306 305 304 304 304 306 308 310 312 314 314 314 313 312 312 311 311 311 311
189 189 188 188 187 187 187 187 189 191 193 195 197 200 203 206 210 215 220 225 228 230 230 230 232 238 246 255 264 271 277 281 283 286 288 291 293 293 294 294 294 295 297 298 299 302 304 304 305 306 306 305 304 304 305 307 311 313 313 314 313 312 310 310 310 311 310 310 310
Height
777 778 780 781 782 783 784 786 787 788 789 791 792 793 794 796 797 798 799 800 801 802 803 804 805 806 806 807 808 808 809 809 810 810 811 811 812 812 812 812 813 813 813 813 813 813 813 813 813 812 812 812 811 811 810 810 810 810 809 809 808 808 807 807 806 806 805 805 805
775 777 778 779 781 782 783 784 786 787 788 789 791 792 793 794 795 797 798 799 800 801 802 803 804 804 805 806 807 807 808 808 809 809 810 810 810 811 811 811 811 812 812 812 812 812 812 812 811 811 810 810 810 809 809 809 808 808 808 807 807 806 806 805 804 804 804 803 803
773 775 777 778 779 780 782 783 784 785 787 788 789 791 792 793 794 795 797 798 799 800 801 802 802 803 804 805 805 806 806 807 808 808 808 808 809 809 809 810 810 810 810 811 811 811 810 810 810 809 809 808 808 808 808 807 807 807 806 805 805 804 804 803 803 803 802 802 801
772 773 774 776 777 778 779 781 782 783 785 787 788 789 791 792 793 794 795 797 798 798 799 800 801 802 803 803 804 805 805 806 806 807 807 807 808 808 808 808 809 809 809 809 809 809 809 809 808 808 808 807 807 806 806 806 805 805 804 804 803 803 802 802 801 801 801 800 800
770 771 772 773 775 776 778 779 781 782 784 785 787 788 789 791 792 793 794 795 796 797 798 799 800 801 801 802 803 803 804 804 805 805 806 806 806 807 807 807 808 808 808 808 808 808 808 807 807 806 806 806 805 805 804 804 804 803 803 802 802 801 800 800 799 799 799 798 798
768 769 771 772 774 775 777 778 779 781 783 784 786 787 788 789 790 792 793 794 795 796 797 798 798 799 800 801 801 802 803 803 803 804 804 804 805 805 806 806 806 806 807 807 807 806 806 806 805 805 804 804 803 803 803 803 802 801 801 800 800 799 799 798 798 798 797 797 796
765 767 769 771 772 774 775 777 778 780 782 783 784 785 786 788 789 790 791 793 794 795 796 797 797 798 798 799 800 801 801 802 802 803 803 803 803 804 804 804 805 805 805 805 805 805 805 804 804 803 803 803 802 802 801 801 800 800 799 798 798 798 797 797 796 796 795 795 794
764 766 767 769 771 773 774 776 777 779 780 782 783 784 785 786 788 789 790 792 793 793 794 795 796 797 797 798 798 799 800 800 801 801 802 802 802 803 803 803 803 803 803 803 803 803 803 803 802 802 801 801 801 800 800 799 799 798 798 797 796 796 796 795 794 794 794 793 793
763 764 766 768 769 771 773 774 776 777 778 780 781 782 784 785 786 788 789 790 791 792 793 794 794 795 796 797 797 798 798 799 799 800 800 801 801 801 802 802 802 802 802 802 802 802 802 801 801 800 800 799 799 798 798 798 797 797 796 795 795 794 794 793 793 793 792 792 791
761 763 765 767 768 770 772 773 774 776 777 778 780 781 783 784 785 786 788 789 790 791 792 792 793 794 795 795 796 796 797 798 798 798 799 799 799 800 800 800 800 800 800 801 800 800 800 799 799 798 798 798 798 797 797 796 796 795 794 793 793 792 792 791 791 791 790 790 789
758 761 763 765 767 768 770 772 773 775 776 777 778 780 781 783 784 785 786 788 788 789 790 791 792 793 793 794 794 795 796 796 797 797 797 798 798 798 798 799 799 799 799 799 799 799 798 798 797 797 797 796 796 795 795 794 794 793 792 792 791 790 790 789 789 789 788 788 787
757 759 761 763 765 767 769 770 772 773 774 776 777 778 780 781 783 784 785 786 787 788 789 790 790 791 792 792 793 793 794 795 795 796 796 796 797 797 797 797 797 797 797 797 797 797 797 796 796 795 795 794 794 794 793 793 792 791 790 790 789 789 788 787 787 787 786 786 785
755 758 760 762 764 765 767 768 770 771 773 774 775 777 778 780 781 783 784 785 785 786 788 788 789 790 790 791 792 792 793 793 794 794 794 795 795 795 796 796 796 796 796 796 796 795 795 794 794 793 793 793 793 792 792 791 790 789 789 788 787 787 786 786 785 785 784 784 783
754 756 758 760 762 764 765 767 768 769 771 772 774 775 777 778 780 781 782 783 784 785 786 787 788 788 789 790 790 791 791 792 792 793 793 793 793 794 794 794 794 794 794 794 794 794 793 793 793 792 792 791 791 790 790 789 788 788 787 786 785 785 784 783 783 783 782 782 781
753 754 756 758 760 762 763 765 766 768 769 771 772 774 775 777 778 780 781 782 783 784 785 785 786 787 788 788 789 789 790 790 791 791 792 792 792 792 793 793 793 793 793 792 792 792 792 791 791 790 790 789 789 788 788 787 787 786 785 784 784 783 782 782 781 781 780 780 779
751 753 754 756 758 760 761 763 764 766 768 769 770 772 774 775 777 778 779 780 781 782 783 784 785 785 786 787 788 788 788 789 789 790 790 790 791 791 791 791 791 791 791 791 790 790 790 790 789 789 788 788 787 787 786 785 785 784 783 783 782 781 780 780 779 779 778 778 777
749 751 753 754 756 757 759 761 762 764 766 767 769 771 772 774 775 777 778 779 780 781 782 783 783 784 785 785 786 786 787 787 788 788 788 789 789 789 789 789 789 789 789 789 789 788 788 788 788 787 787 786 785 785 784 783 783 782 781 781 780 779 779 778 778 777 776 776 775
747 748 750 752 753 755 757 759 760 762 764 765 767 769 771 772 774 775 776 777 778 779 780 781 782 783 783 784 784 785 785 786 786 787 787 787 788 788 788 788 788 788 788 787 787 787 787 786 786 786 785 784 784 783 782 782 781 780 779 779 778 778 777 776 776 775 774 774 773
744 746 748 749 751 753 755 757 759 760 762 764 766 767 769 771 772 773 775 776 777 778 779 780 780 781 782 782 783 783 784 784 785 785 786 786 786 786 786 786 786 786 786 786 785 785 785 785 784 784 783 783 782 781 781 780 779 778 778 777 776 776 775 774 774 773 773 772 771
742 744 745 747 749 751 753 755 757 759 761 763 764 766 768 769 771 772 773 774 775 777 778 778 779 779 780 781 781 782 783 783 783 784 784 784 784 785 785 785 784 784 784 784 784 784 783 783 783 782 782 781 780 779 779 778 777 777 776 775 774 774 773 773 772 771 771 770 770
740 741 743 745 747 749 751 753 755 758 759 761 763 764 766 768 769 771 772 773 774 775 776 777 777 778 779 779 780 780 781 782 782 782 783 783 783 783 783 783 783 783 783 783 783 782 782 781 781 780 780 779 778 778 777 776 775 774 774 773 773 772 771 771 770 769 769 768 768
737 739 741 743 745 748 750 752 754 756 758 759 761 763 765 766 768 769 770 772 773 774 774 775 776 777 777 778 778 779 780 780 781 781 781 781 781 782 782 782 781 781 781 781 781 781 780 780 779 779 778 777 777 776 775 774 773 773 772 771 771 770 769 769 768 768 767 766 766
735 737 739 742 744 746 748 751 753 754 756 758 760 761 763 765 766 768 769 770 771 772 773 773 774 775 776 776 777 778 778 779 779 779 779 780 780 780 780 780 780 780 780 779 779 779 778 778 777 777 776 775 775 774 773 772 771 771 770 769 768 768 768 767 766 766 765 765 764
733 736 738 740 742 745 747 749 751 753 754 756 758 760 762 763 765 767 768 769 770 771 771 772 773 773 774 775 776 776 777 777 778 778 778 778 778 778 778 778 778 778 778 778 778 778 777 776 776 775 774 774 773 772 771 770 770 769 768 768 767 766 765 765 764 764 763 763 762
732 734 736 738 741 743 745 747 749 751 753 754 756 758 760 762 763 765 766 767 768 769 770 771 772 772 773 774 774 775 775 776 776 776 777 777 777 777 777 777 777 777 777 777 776 776 775 775 774 774 773 772 771 770 770 769 768 768 767 766 765 764 763 763 763 762 762 761 761
730 732 734 736 738 741 743 745 747 749 751 753 755 757 758 760 762 763 765 766 767 768 768 769 770 771 772 772 773 773 774 774 774 775 775 775 775 775 775 775 775 775 775 775 775 774 774 774 773 773 772 771 770 769 768 767 767 766 765 764 763 763 762 761 761 761 760 760 759
728 731 733 734 737 739 741 743 745 747 749 751 753 755 757 759 761 762 763 764 765 766 767 768 768 769 770 771 771 772 772 773 773 773 773 773 774 774 774 774 774 774 773 773 773 773 773 772 772 771 770 769 768 767 766 765 765 764 763 763 762 761 761 760 759 759 758 758 757
727 728 731 733 735 737 739 741 743 745 748 749 752 753 756 758 759 760 762 763 764 765 765 766 767 768 768 769 770 770 771 771 771 772 772 772 772 772 772 772 772 772 772 772 772 771 771 770 770 769 768 767 766 765 764 764 763 762 762 761 760 760 759 758 758 757 757 756 755
724 727 729 731 733 735 737 739 742 743 746 748 750 752 754 756 758 759 760 761 762 763 764 765 766 767 767 768 768 769 769 769 770 770 770 771 771 771 771 771 771 771 771 770 770 770 769 769 768 767 766 765 764 764 763 762 761 761 760 759 759 758 758 757 756 756 755 754 753
723 725 727 729 731 733 735 737 739 742 744 747 749 751 753 754 756 757 758 759 760 761 762 763 764 765 765 766 767 767 768 768 768 769 769 769 769 769 769 769 769 769 769 769 768 768 768 767 766 765 764 764 763 762 761 761 760 759 758 758 757 757 756 755 755 754 753 753 752
721 723 725 727 729 731 733 736 738 741 743 745 748 749 751 753 754 755 757 758 759 760 761 762 763 763 764 765 765 766 766 767 767 767 767 768 768 768 768 768 768 767 767 767 767 766 766 765 764 763 763 762 761 760 760 759 758 758 757 756 756 755 754 754 753 753 752 751 750
719 721 723 725 727 729 732 734 737 739 742 744 746 748 749 751 753 754 755 756 758 758 759 760 761 762 763 763 764 764 764 765 765 766 766 766 766 766 766 766 766 766 766 765 765 764 764 763 763 762 761 760 760 759 758 758 757 756 755 755 754 753 753 753 752 751 750 750 749
717 719 721 723 726 728 730 733 735 738 740 743 744 746 748 750 751 753 754 755 756 757 758 759 759 760 761 762 762 763 763 763 764 764 764 764 764 764 764 764 764 764 764 764 763 763 762 762 761 760 759 759 758 758 757 756 755 755 754 753 753 752 752 751 750 750 749 748 747
715 717 719 722 724 726 729 731 734 737 739 741 743 745 747 748 750 751 752 753 754 755 756 757 758 759 759 760 761 761 762 762 762 763 763 763 763 763 763 763 763 763 762 762 762 761 761 760 759 759 758 757 757 756 755 755 754 753 753 752 751 751 750 750 749 748 748 747 746
713 715 718 720 722 725 727 730 733 735 738 739 742 743 745 747 748 749 751 752 753 754 755 756 757 757 758 759 759 760 760 760 761 761 761 761 761 761 761 761 761 761 761 760 760 759 759 758 758 757 757 756 755 754 754 753 752 752 751 750 750 749 749 748 748 747 746 745 744
711 713 716 718 721 723 726 728 731 734 736 738 740 742 743 745 746 748 749 750 752 753 753 754 755 756 757 757 758 758 759 759 759 759 760 760 760 759 759 759 759 759 759 758 758 758 757 757 756 756 755 754 754 753 752 752 751 750 749 749 748 748 747 746 746 745 744 744 743
709 711 714 717 719 722 724 727 730 732 734 736 738 740 742 743 745 747 748 749 750 751 752 753 753 754 755 756 756 757 757 758 758 758 758 758 758 758 758 757 757 757 757 757 756 756 755 755 755 754 753 753 752 751 751 750 749 748 748 747 746 746 745 745 744 743 743 742 741
708 710 712 715 718 720 723 726 728 730 733 735 737 738 740 742 743 745 746 748 748 749 750 751 752 753 754 754 755 755 756 756 756 756 756 757 757 756 756 756 755 755 755 755 755 754 754 753 753 753 752 751 751 750 749 748 748 747 746 746 745 744 744 743 743 742 741 740 740
706 708 711 713 716 719 721 724 726 729 731 733 735 737 739 741 742 743 745 746 747 748 749 750 751 752 753 753 753 754 754 755 755 755 755 755 755 755 754 754 754 753 753 753 753 753 752 752 752 751 751 750 749 748 748 747 746 745 745 744 743 743 742 742 741 740 739 739 738
705 707 710 712 715 717 720 723 725 728 730 732 734 736 738 739 741 742 743 745 746 747 748 749 750 750 751 752 752 753 753 753 753 753 753 753 753 753 753 753 752 752 752 752 752 751 751 751 750 750 749 748 748 747 746 745 745 744 743 743 742 741 741 740 739 739 738 737 737
704 706 709 711 713 716 719 721 724 727 729 731 733 735 737 738 740 741 742 743 744 745 747 748 748 749 750 750 751 751 751 751 752 752 752 752 752 752 752 751 751 750 750 750 750 750 750 749 749 748 748 747 746 746 745 744 743 743 742 741 741 740 739 738 738 737 736 736 735